Regional Weather Roundup
Issued by NWS

Home | Current Version | Previous Version | Graphics & Text | Print | Product List | Glossary On
Versions: 1 2 3 4 5 6 7 8 9 10 11 12 13 14 15 16 17 18 19 20 21 22 23 24 25 26 27 28 29 30 31 32 33 34 35 36 37 38 39 40 41 42 43 44 45 46 47 48 49 50
000
ASUS43 KFSD 261510
RWRSD

WEATHER ROUNDUP FOR SOUTH DAKOTA
NATIONAL WEATHER SERVICE SIOUX FALLS SD
1000 AM CDT SAT JUL 26 2014

NOTE: "FAIR" INDICATES FEW OR NO CLOUDS BELOW 12,000 FEET WITH NO
SIGNIFICANT WEATHER AND/OR OBSTRUCTIONS TO VISIBILITY.


SDZ001>005-009-010-012>017-261600-
NORTHWEST AND NORTH CENTRAL SOUTH DAKOTA

CITY           SKY/WX    TMP DP  RH WIND       PRES   REMARKS
BUFFALO          N/A     69  46  43 NW23G29   29.99R
FAITH            N/A     70  47  43 N20       29.99S
MOBRIDGE         N/A     72  50  45 MISG      29.90R
$$

SDZ012>016-024>037-041>051-057-063-072>074-261600-
SOUTHWEST AND SOUTH CENTRAL SOUTH DAKOTA

CITY           SKY/WX    TMP DP  RH WIND       PRES   REMARKS
RAPID CTY ARPT SUNNY     70  46  42 N15       30.06S
PIERRE         CLOUDY    74  69  85 N15       29.89R
CUSTER         SUNNY     69  34  27 NE8       30.17R
ELLSWORTH AFB  SUNNY     70  44  38 N15       30.07R
PHILIP         MOSUNNY   76  51  41 N18G28    29.95R
PINE RIDGE     SUNNY     71  55  56 NW12      30.05R
WINNER         CLOUDY    75  70  84 NW9       29.89R
$$

SDZ004>011-016>023-039-040-261600-
NORTHEAST SOUTH DAKOTA

CITY           SKY/WX    TMP DP  RH WIND       PRES   REMARKS
ABERDEEN       MOSUNNY   74  67  78 S7        29.86F
WATERTOWN      CLOUDY    68  65  90 CALM      29.87S
SISSETON         N/A     76  69  79 W9G18     29.84R
$$

SDZ017-020-022-023-036>040-048>070-261600-
SOUTHEAST SOUTH DAKOTA

CITY           SKY/WX    TMP DP  RH WIND       PRES   REMARKS
SIOUX FALLS    TSTM      73  70  90 CALM      29.88R
HURON          RAIN      69  67  93 N12       29.87R FOG
CHAMBERLAIN    LGT RAIN  64  60  86 E9        29.92R
MITCHELL       TSTM      70  67  90 NW12      29.93R
YANKTON        SUNNY     79  72  78 SE8       29.82S
$$

ABBREVIATIONS USED IN REMARKS
   TC - TEMPERATURE IN CELSIUS
  WCI - WIND CHILL INDEX
   HX - HEAT INDEX
  VSB - VISIBILITY




USA.gov is the U.S. government's official web portal to all federal, state and local government web resources and services.